User: anonymous   Login
Location: Iesi
(43.5167°N, 13.2333°E)
Time: 10:27:49
(UTC+00:00)
Language:

Cosmos 921 Rocket - Orbit

View from above orbital plane
View from above orbital plane
View from above satellite
View from above satellite

Ground track
Ground track

The orbit data is extracted from the following two-line orbital elements,

1 10096U 77055B   20305.20688086  .00000070  00000-0  95944-5 0  9991
2 10096  75.8339 331.0323 0043467 307.3697  52.3539 14.88719027345564
Epoch (UTC): 31 October 2020 04:57:54
Eccentricity: 0.0043467
inclination: 75.8339°
perigee height: 571 km
apogee height: 632 km
right ascension of ascending node: 331.0323°
argument of perigee: 307.3697°
revolutions per day: 14.88719027
mean anomaly at epoch: 52.3539°
orbit number at epoch: 34556

The dashed part of the orbit path shows where the satellite is in the earth's shadow,  

DLR